Regional Weather Roundup
Issued by NWS Kansas City/Pleasant Hill, MO

Home | Current Version | Previous Version | Text Only | Print | Product List | Glossary On
Versions: 1 2 3 4 5 6 7 8 9 10 11 12 13 14 15 16 17 18 19 20 21 22 23 24 25 26 27 28
000
ASUS43 KEAX 291810
RWREAX

WEATHER ROUNDUP FOR EASTERN KANSAS AND NORTHWEST MISSOURI
NATIONAL WEATHER SERVICE KANSAS CITY/PLEASANT HILL MO
100 PM CDT FRI JUL 29 2016

KSZ040-057-103>105-MOZ028-029-037-043-291900-
...KANSAS CITY METROPOLITAN AREA...

CITY           SKY/WX    TMP DP  RH WIND       PRES   REMARKS
K.C. INTL      PTSUNNY   82  62  50 N5        30.02S
6HR MIN TEMP:  68; 6HR MAX TEMP:  82;

K.C. DOWNTOWN  PTSUNNY   84  64  50 VRB3      30.00F
6HR MIN TEMP:  72; 6HR MAX TEMP:  84;

LEES SUMMIT    CLOUDY    82  66  58 VRB6      30.02F
6HR MIN TEMP:  70; 6HR MAX TEMP:  82;

OLATHE - IXD   PTSUNNY   80  66  62 VRB3      30.02F
6HR MIN TEMP:  68; 6HR MAX TEMP:  83;

OLATHE - OJC   CLOUDY    81  64  56 N7        30.02F
6HR MIN TEMP:  69; 6HR MAX TEMP:  82;

LAWRENCE       PTSUNNY   82  67  60 CALM      30.01F

$$

MOZ001>008-011>017-020>025-030>033-038>040-044>046-053-054-291900-
...NORTHERN AND CENTRAL MISSOURI...

CITY           SKY/WX    TMP DP  RH WIND       PRES   REMARKS
ST. JOSEPH     MOSUNNY   81  64  56 MISG      30.02F
6HR MIN TEMP:  68; 6HR MAX TEMP:  81;

MOSBY          MOCLDY    79  61  53 NE3       30.01F
WHITEMAN AFB   PTSUNNY   81  69  65 VRB6      30.00S
6HR MIN TEMP:  70; 6HR MAX TEMP:  82;

CLINTON        CLOUDY    82  72  69 N3        29.99F
SEDALIA        MOSUNNY   82  69  64 N8        30.01F
6HR MIN TEMP:  73; 6HR MAX TEMP:  83;

WARSAW         NOT AVBL
CHILLICOTHE      N/A     81  65  58 VRB3      30.01F
6HR MIN TEMP:  68; 6HR MAX TEMP:  83;

KIRKSVILLE     MOSUNNY   80  63  55 VRB6      30.00F
6HR MIN TEMP:  66; 6HR MAX TEMP:  81;


$$

MOZ041-047>049-056>058-063>065-088>090-097-291900-
...EASTERN AND SOUTHERN MISSOURI...

CITY           SKY/WX    TMP DP  RH WIND       PRES   REMARKS
ST. LOUIS INTL CLOUDY    82  67  60 NW9       29.97S
6HR MIN TEMP:  75; 6HR MAX TEMP:  85;

SPIRIT OF STL  CLOUDY    84  68  58 W5        29.95F
COLUMBIA       PTSUNNY   83  69  62 NW10      29.99F
JEFFERSON CITY CLOUDY    79  71  76 SW3       29.98S
ROLLA          MOSUNNY   82  71  69 W3        29.97F
OSAGE BEACH    PTSUNNY   81  73  76 CALM      29.97F THUNDER
SPRINGFIELD    MOSUNNY   81  73  76 NW12      29.98F
BRANSON        CLOUDY    75  72  88 W9        30.04R THUNDER
JOPLIN         PTSUNNY   83  70  64 NW8       30.00F
WEST PLAINS    PTSUNNY   85  70  60 VRB5      29.99F

$$

IAZ060-094-KSZ022-034>040-054-083-096-NEZ052-066-093-291900-
...KANSAS...SOUTHEAST NEBRASKA AND IOWA...

CITY           SKY/WX    TMP DP  RH WIND       PRES   REMARKS
TOPEKA         MOSUNNY   82  66  58 N5        30.01F
6HR MIN TEMP:  67; 6HR MAX TEMP:  83;

MANHATTAN      PTSUNNY   80  68  66 E7        30.03F
EMPORIA        CLOUDY    83  67  58 VRB5      30.03R
CHANUTE        CLOUDY    83  71  67 W8        30.02R
WICHITA        MOSUNNY   81  67  62 N10       30.03F
OMAHA          MOSUNNY   77  62  59 N8        30.04F
LINCOLN        PTSUNNY   77  66  68 NW6       30.07F
FALLS CITY     MOSUNNY   81  65  58 NE6       30.03S
LAMONI         PTSUNNY   75  65  70 N13       30.02F
DES MOINES     CLOUDY    70  63  78 NW9       30.01S

$$





USA.gov is the U.S. government's official web portal to all federal, state and local government web resources and services.